Find Local Weather

World > North America > United States > Ohio

Delphos, Ohio Regional Weather

Lat: 40.84N, Lon: 84.34W
Wx Zone: OHZ024
Warning FLW WEATHER ALERT - (More Info. Click Here) Warning
Feedback
Expires:201806230300;;962693
ASUS41 KCLE 230212
RWRCLE
OHIO REGIONAL WEATHER ROUNDUP
NATIONAL WEATHER SERVICE WILMINGTON, OH
1000 PM EDT FRI JUN 22 2018

NOTE: "FAIR" INDICATES FEW OR NO CLOUDS BELOW 12,000 FEET WITH NO
SIGNIFICANT WEATHER AND/OR OBSTRUCTIONS TO VISIBILITY.


OHZ001>008-015>018-024>027-034-035-043-044-230300-
   NORTHWEST OHIO
  
CITY           SKY/WX    TMP DP  RH WIND       PRES   REMARKS
DEFIANCE       CLOUDY    68  66  93 NE6       29.69R FOG              
FINDLAY        FAIR      69  66  90 E7        29.68R                  
TOLEDO EXPRESS CLOUDY    68  66  93 NE9       29.69S FOG              
TOLEDO EXEC    CLOUDY    69  67  93 NE6       29.70R                  
LIMA           MOCLDY    70  69  97 E7        29.68S                  
$$
 

SKY/WX - Weather  TMP - Temperature  DP - Dewpoint  RH - Relative Humidity
WIND - Wind Direction/Speed PRES - Barometric Pressure